User: anonymous   Login
Location: *
(50.3194°N, 7.1067°E)
Time: 12:33:09
(UTC+00:00)
Language:

Meteor 2-5 Rocket - Orbit

View from above orbital plane
View from above orbital plane
View from above satellite
View from above satellite

Ground track
Ground track

The orbit data is extracted from the following two-line orbital elements,

1 11608U 79095B   19320.86357546 +.00000128 +00000-0 +69723-4 0  9997
2 11608 081.2147 074.4290 0054356 202.2001 157.6814 14.06150849053881
Epoch (UTC): 16 November 2019 20:43:32
Eccentricity: 0.0054356
inclination: 81.2147°
perigee height: 833 km
apogee height: 912 km
right ascension of ascending node: 74.4290°
argument of perigee: 202.2001°
revolutions per day: 14.06150849
mean anomaly at epoch: 157.6814°
orbit number at epoch: 5388

The dashed part of the orbit path shows where the satellite is in the earth's shadow,  

DLR